Regional Weather Roundup
Issued by NWS Kansas City/Pleasant Hill, MO

Home | Current Version | Previous Version | Graphics & Text | Print | Product List | Glossary Off
Versions: 1 2 3 4 5 6 7 8 9 10 11 12 13 14 15 16 17 18 19 20 21 22 23 24 25 26 27 28 29 30 31 32 33 34 35 36 37 38 39 40 41 42 43 44 45 46 47 48 49 50

000
ASUS43 KEAX 310004
RWREAX

WEATHER ROUNDUP FOR EASTERN KANSAS AND NORTHWEST MISSOURI
NATIONAL WEATHER SERVICE KANSAS CITY/PLEASANT HILL MO
700 PM CDT THU OCT 30 2014

KSZ040-057-103>105-MOZ028-029-037-043-310100-
...KANSAS CITY METROPOLITAN AREA...

CITY           SKY/WX    TMP DP  RH WIND       PRES   REMARKS
K.C. INTL      PTCLDY    58  42  55 NW8       30.09R
6HR MIN TEMP:  58; 6HR MAX TEMP:  67;

K.C. DOWNTOWN  PTCLDY    62  41  46 N8        30.08R
6HR MIN TEMP:  62; 6HR MAX TEMP:  69; 6HR PCP: TRACE;

LEES SUMMIT    CLEAR     61  40  45 NW12      30.07R
6HR MIN TEMP:  61; 6HR MAX TEMP:  68;

OLATHE - IXD   CLEAR     58  40  51 NW12      30.10R
6HR MIN TEMP:  58; 6HR MAX TEMP:  68; 6HR PCP: TRACE;

OLATHE - OJC   CLEAR     61  40  45 N10       30.08R
6HR MIN TEMP:  60; 6HR MAX TEMP:  68;

LAWRENCE       CLEAR     55  41  59 NW12      30.11R

$$

MOZ001>008-011>017-020>025-030>033-038>040-044>046-053-054-310100-
...NORTHERN AND CENTRAL MISSOURI...

CITY           SKY/WX    TMP DP  RH WIND       PRES   REMARKS
ST. JOSEPH     PTCLDY    59  41  51 NW14      30.11R
6HR MIN TEMP:  59; 6HR MAX TEMP:  68;

MOSBY          CLEAR     61  39  44 NW7       30.07R
WHITEMAN AFB   PTCLDY    60  41  51 NW12      30.04R
6HR MIN TEMP:  59; 6HR MAX TEMP:  67;

CLINTON        CLEAR     57  43  58 NW6       30.04R
SEDALIA        CLEAR     57  41  55 N5        30.04R
6HR MIN TEMP:  54; 6HR MAX TEMP:  66;

WARSAW         NOT AVBL
MARSHALL       CLEAR     59  45  58 N6        30.04R
CHILLICOTHE      N/A     59  41  51 NW3       30.06R
6HR MIN TEMP:  58; 6HR MAX TEMP:  66;

MOBERLY        CLEAR     54  41  62 CALM      30.03R
KIRKSVILLE     MOCLDY    52  44  74 NE6       30.04R
6HR MIN TEMP:  52; 6HR MAX TEMP:  64;


$$

MOZ041-047>049-056>058-063>065-088>090-097-310100-
...EASTERN AND SOUTHERN MISSOURI...

CITY           SKY/WX    TMP DP  RH WIND       PRES   REMARKS
ST. LOUIS INTL MOCLDY    56  44  64 W5        30.04R
6HR MIN TEMP:  56; 6HR MAX TEMP:  62; 6HR PCP: TRACE;

SPIRIT OF STL  CLOUDY    52  46  80 CALM      30.02S
COLUMBIA       MOCLDY    55  47  74 CALM      30.02R
JEFFERSON CITY PTCLDY    54  48  80 E3        30.02R
MEXICO         MOCLDY    55  50  82 W3        30.02R
ROLLA          MOCLDY    50  46  86 S5        30.01R
LEBANON        CLEAR     57  43  58 W3        30.02R
OSAGE BEACH    CLEAR     54  46  76 NE3       30.02R
SPRINGFIELD    CLEAR     60  38  43 NW8       30.03R
BRANSON        CLEAR     59  41  51 W7        30.04R
NEVADA         CLEAR     59  41  51 NW8       30.07R
JOPLIN         CLEAR     59  39  47 NW9       30.07R
WEST PLAINS    CLEAR     54  42  64 E3        30.03R

$$

IAZ060-094-KSZ022-034>040-054-083-096-NEZ052-066-093-310100-
...KANSAS...SOUTHEAST NEBRASKA AND IOWA...

CITY           SKY/WX    TMP DP  RH WIND       PRES   REMARKS
TOPEKA         CLEAR     59  40  49 NW8       30.12R
6HR MIN TEMP:  59; 6HR MAX TEMP:  70;

MANHATTAN      CLEAR     61  37  41 N6        30.16R
EMPORIA        CLEAR     59  37  44 NW9       30.12R
CHANUTE        CLEAR     63  37  38 NW10      30.09R
WICHITA        CLEAR     66  33  29 N13       30.15R
OMAHA          PTCLDY    53  40  61 NW20G26   30.19R
LINCOLN        CLEAR     54  37  52 N25       30.23R
FALLS CITY     CLEAR     57  39  51 NW13      30.13R
LAMONI         CLEAR     54  38  54 N12       30.08R
DES MOINES     PTCLDY    56  38  50 N12       30.09R

$$




USA.gov is the U.S. government's official web portal to all federal, state and local government web resources and services.